• Processing (Info)

  • MPEC 2015-R41 : 2008 US4

    The following Minor Planet Electronic Circular may be linked-to from your own Web pages, but must not otherwise be redistributed electronically.

    A form allowing access to any MPEC is at the bottom of this page.


    Read MPEC 2015-R40 Read MPEC 2015-R42


    M.P.E.C. 2015-R41                                Issued 2015 Sept. 11, 10:29 UT
    
         The Minor Planet Electronic Circulars contain information on unusual
             minor planets and routine data on comets.  They are published
        on behalf of Division F of the International Astronomical Union by the
              Minor Planet Center, Smithsonian Astrophysical Observatory,
                              Cambridge, MA 02138, U.S.A.
    
                 Prepared using the Tamkin Foundation Computer Network
    
                                  MPC@CFA.HARVARD.EDU
                URL https://www.minorplanetcenter.net/    ISSN 1523-6714
    
                                       2008 US4
    
                               Revision to MPEC 2008-U60
    
    Additional Observations:
         K08U04S 2C2015 08 19.57038400 05 55.347-19 11 04.32         23.7 RtER041568
         K08U04S 2C2015 08 19.60531000 05 53.804-19 11 22.48         23.7 RtER041568
         K08U04S 2C2015 09 10.44344023 40 24.535-22 33 51.05         22.6 RtER041568
         K08U04S 2C2015 09 10.44733223 40 24.135-22 33 53.10         22.7 RtER041568
    
    Observer details:
    568 Mauna Kea.  Observers Y. Ramanjooloo, D. J. Tholen.  Measurer D. J. Tholen.
        2.24-m University of Hawaii reflector.
    
    First and last observations above in comparison with prediction:
    Residuals in seconds of arc, reference and Delta-T
    150819 568 71.9+ 41.8+    150910 568 85.3+ 42.6+    MPO157499   -0.047 day
    
    Orbital elements:
    2008 US4                                                 Earth MOID = 0.0773 AU
    Epoch 2015 June 27.0 TT = JDT 2457200.5                 MPC
    M 297.97679              (2000.0)            P               Q
    n   0.27643879     Peri.   72.63503     -0.22953933     -0.96600508
    a   2.3338345      Node    31.40891     +0.78369080     -0.25590386
    e   0.6342328      Incl.   13.19245     +0.57718318     -0.03670699
    P   3.57           H   20.9           G   0.15           U   0
    Residuals in seconds of arc
    081006 G96  0.3-  0.3+    081027 379  0.2-  0.2+    081103 H53  0.0   0.0
    081006 G96  0.4-  0.1+    081027 379  0.2+  0.2-    081104 H45  0.4+  0.9-
    081006 G96  0.3-  0.0     081027 379  0.5-  0.3-    081104 H45  0.3-  0.4+
    081006 G96  0.4-  0.1+    081027 379  0.4-  0.1+    081104 H45  0.2-  0.2+
    081025 A05  0.5-  0.5-    081027 379  0.1-  0.2-    081104 H45  0.4-  0.6+
    081025 A05  0.4-  0.8-    081027 379  0.1+  0.1-    081104 H45  0.2-  0.2-
    081026 704  0.1-  0.6+    081028 H45  0.0   0.1-    081104 H45  0.3-  0.2+
    081026 704  0.1-  0.6+    081028 H45  0.0   0.3+    081104 H45  0.1-  0.2+
    081026 704  0.1-  0.7+    081028 H45  0.2-  0.0     081104 379  0.4-  0.2-
    081026 704  0.3+  0.7+    081028 H45  0.1+  0.2+    081104 379  0.4-  0.2-
    081026 704 (0.6+  2.3+)   081028 H45  0.3+  0.1-    081104 379  0.0   0.5-
    081026 A05  0.0   0.5+    081028 H45  0.0   0.3-    081104 379  0.4-  0.2+
    081026 A05  0.1+  0.7+    081028 H45  0.1+  0.2-    081104 379  0.3-  0.1+
    081026 A05 (0.1+  1.5+)   081029 H53  0.3+  0.2-    081104 379  0.4-  0.1-
    081026 J95  0.2+  0.2-    081029 H53  0.1+  0.1+    081104 379  0.5-  0.2-
    081026 J95  0.1+  0.3-    081029 H53  0.3+  0.0     081104 379  0.2+  0.3-
    081026 J95  0.3+  0.3-    081029 H53  0.8+  1.1+    081104 379  0.0   0.4+
    081026 A05  0.2-  0.5+    081029 H53  0.7+  0.1-    081104 379  0.1+  0.2-
    081026 A05  0.4+  0.4+    081029 H53  1.3-  0.7-    081104 379  0.5-  0.1-
    081026 B03  0.0   0.0     081030 379  0.4-  0.2-    081105 H53  0.1-  0.1-
    081026 A05  0.2+  0.4+    081030 379  0.3+  0.4+    081105 H53  1.1-  0.6+
    081026 J47  0.6-  0.3+    081030 379  0.1+  0.4-    081105 H53  0.0   0.1+
    081026 B03  0.1-  0.0     081030 379  0.1-  0.0     081105 H53  0.7-  0.4+
    081026 J47  0.3-  0.2+    081030 379  0.0   0.1+    081105 H53  0.5-  0.5+
    081026 J47  0.3+  0.3+    081030 379  0.3+  0.4-    081105 H53 (1.8-  1.1+)
    081026 213  0.5+  0.3-    081030 379  0.1-  0.1+    081105 379  0.8-  0.4+
    081026 J47  0.4-  0.0     081031 H45  0.2-  0.0     081105 379  0.4-  0.0
    081026 B03  0.2+  0.1+    081031 H45  0.3-  0.1-    081105 379  0.7-  0.5-
    081026 J47  0.3-  0.2+    081031 H45  0.1+  0.1-    081106 H53  0.8+  0.4-
    081026 J47  0.1-  0.0     081031 H45  0.2+  0.2-    081106 H53  0.5+  0.0
    081026 B49  0.8+  0.2-    081031 H45  0.1-  0.0     081106 H53  0.3-  0.1+
    081026 A05  0.1+  0.5+    081031 H45  0.0   0.2-    081106 H53  0.5+  0.5-
    081026 J47  0.1-  0.1-    081031 H45  0.4-  0.1-    081106 H53  0.6+  0.0
    081026 B49  0.8+  0.1-    081031 703  0.9+  1.4-    081106 H53  0.5+  0.5-
    081026 213  0.3-  0.7-    081031 703  0.7+  1.2-    081107 704  0.5+  0.3-
    081026 B49  0.9+  0.0     081031 703  1.2+  1.2-    081107 704 (3.4-  1.5-)
    081026 213  0.3+  0.4-    081031 703  0.6+  1.3-    081107 704  0.3+  1.1+
    081026 B49  1.2+  0.1+    081101 H53  0.2+  0.2+    081107 704  0.6+  0.1+
    081026 B49  1.4+  0.0     081101 H53  0.5+  0.1-    081107 704  0.2+  0.4+
    081026 A05  0.2+  0.3+    081101 H53  0.7+  0.2+    081107 151  0.1+  0.6+
    081026 B49  0.8+  0.7+    081101 H53 (2.1+  0.0 )   081107 151  0.4-  0.5+
    081026 B40  0.1-  0.6+    081101 H53  0.2+  0.9-    081107 151  0.9-  0.3+
    081026 B49  0.2+  0.6+    081101 H53 (1.6-  0.9-)   081107 151  0.2-  0.4+
    081026 B40  0.3-  0.2+    081101 H28  0.0   0.0     081107 151  0.2+  0.1+
    081026 A05  0.0   0.3+    081101 H28  0.1+  0.7-    081107 151  0.1+  0.4+
    081026 B49  0.3-  0.0     081101 H28  0.6-  0.6+    081107 151  0.0   0.6+
    081026 B40  0.3-  0.1+    081101 H28  0.5+  1.0+    081107 204  0.3-  0.0
    081026 B40  0.5+  0.1+    081101 H28  0.4+  0.4-    081107 204  0.0   0.1-
    081026 B49  0.4-  0.4+    081101 H28  0.0   0.4+    081107 204  0.1+  0.0
    081026 B49  0.1+  0.1-    081101 G96  0.0   0.1+    081107 204  0.0   0.1-
    081027 H45  0.1+  0.5-    081101 G96  0.1+  0.1+    081107 204  0.1+  0.0
    081027 H45  0.2+  0.1-    081101 G96  0.1+  0.1+    081108 704  0.3-  0.7-
    081027 H45  0.6+  0.9+    081101 G96  0.1-  0.1+    081108 704  0.6-  0.2-
    081027 H45  0.1-  0.1+    081101 A81  0.2-  0.1-    081108 704  0.7-  0.3-
    081027 H45  0.2+  0.7-    081101 A81  0.1-  0.1-    081109 704  0.2+  0.1-
    081027 H45  0.6+  0.1+    081101 A81  0.2-  0.2-    081109 704  0.3+  0.3-
    081027 H45  0.1+  0.2-    081102 H53  0.3+  0.9-    081109 704  0.3-  0.0
    081027 H45  0.0   0.2+    081102 H53  0.9+  0.4+    081109 704  0.2-  0.1+
    081027 704  0.2+  0.1+    081102 H53  0.1+  0.6+    081109 704  0.3+  0.5+
    081027 704  0.0   0.2+    081102 H53  0.6+  0.6-    081116 A78  0.3+  0.1-
    081027 704  0.1+  0.1+    081102 H53  0.1-  0.3-    081116 A78  0.7+  0.2-
    081027 704  0.2+  0.3+    081102 H53  0.1-  0.6-    081116 A78  0.6+  0.6-
    081027 704  0.3-  0.0     081102 H45  0.0   0.3+    081116 A78  0.7+  0.9-
    081027 704  0.1+  0.1+    081102 H45  0.2-  0.3+    090220 H55  0.2-  0.1-
    081027 704  0.1-  0.2+    081102 H45  0.1+  0.6+    090220 H55  0.3+  0.1-
    081027 704  0.0   0.3+    081102 H45  0.2-  0.0     090220 H55  0.3+  0.2-
    081027 704  0.2-  0.3-    081102 H45  0.2-  0.3+    090331 691  0.4+  0.2-
    081027 704  0.2+  0.2+    081102 H45  0.3-  0.0     090426 691 (0.7+  1.9+)
    081027 379  0.6-  0.3-    081102 H45  0.5-  0.3+    090426 691 (1.1+  2.0+)
    081027 379  0.4-  0.2-    081103 H53  0.2-  0.3+    090426 691  1.0-  0.9+
    081027 379  0.3-  0.2+    081103 H53  0.0   0.5-    150819 568  0.0   0.0
    081027 379  0.8-  0.1-    081103 H53  0.0   0.2+    150819 568  0.0   0.0
    081027 379  0.4-  0.2+    081103 H53  0.1-  0.1-    150910 568  0.0   0.1+
    081027 379  0.5-  0.0     081103 H53  0.4+  0.6+    150910 568  0.1-  0.0
    
    Ephemeris:
    2008 US4                 a,e,i = 2.33, 0.63, 13                  q = 0.8536
    Date    TT    R. A. (2000) Decl.     Delta      r     Elong.  Phase     V
    2015 08 12    00 09 57.2 -18 09 03   1.3415  2.2187   140.4    16.9    24.2
    ...
    2015 08 27    23 59 36.4 -20 18 52   1.1477  2.1038   154.2    12.1    23.5
    ...
    2015 09 04    23 50 04.5 -21 35 01   1.0642  2.0405   159.7     9.9    23.2
    ...
    2015 09 10    23 41 07.6 -22 29 53   1.0117  1.9920   161.3     9.3    23.0
    2015 09 11    23 39 30.0 -22 38 32   1.0039  1.9839   161.2     9.4    23.0
    2015 09 12    23 37 50.1 -22 46 59   0.9962  1.9757   161.1     9.5    23.0
    ...
    2015 09 18    23 27 12.0 -23 32 28   0.9559  1.9262   158.4    11.1    22.9
    ...
    2015 09 26    23 11 52.4 -24 14 08   0.9160  1.8589   151.3    15.0    22.9
    ...
    2015 10 11    22 43 50.7 -24 13 36   0.8791  1.7292   134.0    24.5    22.9
    
    A. U. Tomatic                (C) Copyright 2015 MPC           M.P.E.C. 2015-R41
    

    Read MPEC 2015-R40 Read MPEC 2015-R42


    MPEC number:

    Enter an MPEC number in one of the following forms:

    • 1997-B01 (the full form)
    • J97B01 (the packed version of the full form)
    • B01 (the abbreviated form)